Location: Unspecified
(41.5516°N, 88.1098°W)
Time: 22:43:52
(UTC-06:00)

Okean 3 - Visible Passes

Search period start: 09 February 2016 00:00
Search period end: 19 February 2016 00:00
Orbit: 578 x 605 km, 82.5° (Epoch: 09 February)

Date Brightness Start Highest point End Pass type
(mag) Time Alt. Az. Time Alt. Az. Time Alt. Az.
09 Feb 5.3 19:09:18 10° NNW 19:13:01 31° W 19:16:45 10° SSW visible
10 Feb 7.1 06:02:05 10° E 06:03:08 11° E 06:04:12 10° ENE visible
10 Feb 4.3 17:40:47 10° NNE 17:44:29 29° ENE 17:48:10 10° SE visible
10 Feb 6.1 19:18:24 10° NW 19:21:34 21° W 19:24:45 10° SW visible
11 Feb 6.6 06:08:58 10° SE 06:11:37 17° E 06:14:18 10° NE visible
11 Feb 3.7 17:49:11 10° N 17:53:14 44° ENE 17:57:16 10° SSE visible
11 Feb 6.7 19:27:52 10° NW 19:30:05 14° W 19:32:19 10° WSW visible
12 Feb 6.2 06:16:44 10° SE 06:20:09 25° E 06:23:35 10° NE visible
12 Feb 3.4 17:57:44 10° N 18:01:56 70° E 18:06:09 10° SSE visible
13 Feb 3.7 18:06:23 10° NNW 18:10:36 75° W 18:14:49 10° S visible
14 Feb 4.6 18:15:10 10° NNW 18:19:14 47° W 18:23:17 10° SSW visible
15 Feb 5.6 18:24:05 10° NNW 18:27:49 31° W 18:31:32 10° SSW visible
16 Feb 7.1 05:16:44 10° E 05:17:55 11° E 05:19:06 10° ENE visible
16 Feb 6.4 18:33:12 10° NW 18:36:21 21° W 18:39:31 10° SW visible
17 Feb 6.7 05:23:42 10° SE 05:26:23 17° E 05:29:06 10° NE visible
17 Feb 6.8 18:42:41 10° NW 18:44:51 14° W 18:47:02 10° WSW visible
18 Feb 6.0 05:31:29 10° SE 05:34:55 25° E 05:38:22 10° NNE visible
